[[[{"header":{"parameterUnit":"kt","parameterCategory":2,"dx":1,"dy":1,"la1":30.253999710083008,"la2":30.299108505249023,"lo1":-89.0895004272461,"lo2":-89.04439544677734,"nx":28,"ny":28,"refTime":"2022-10-19T21:00:00:Z","depth":0,"parameterNumber":1,"parameterNumberName":"U-component_of_WINDS"},"data":[3.8949,3.904,3.9058,3.9171,3.9206,3.9286,3.932,3.9366,3.9408,3.9505,3.9564,3.9592,3.964,3.9715,3.9779,3.979,3.9814,3.9833,3.9842,3.9742,3.973,3.9717,3.9695,3.984,3.984,3.9941,3.9942,3.9942,3.8874,3.891,3.8975,3.9051,3.9107,3.91,3.9159,3.9206,3.9277,3.933,3.9389,3.9476,3.9547,3.959,3.966,3.9703,3.9702,3.972,3.9715,3.9722,3.9617,3.9594,3.9719,3.9719,3.9719,3.9719,3.9719,3.9719,3.8741,3.8795,3.8851,3.8923,3.8966,3.9016,3.9071,3.9104,3.9168,3.9244,3.9254,3.9335,3.9391,3.9485,3.9521,3.9584,3.9567,3.9592,3.9597,3.9602,3.9604,3.9451,3.9598,3.9598,3.9598,3.9597,3.9597,0,3.8648,3.866,3.8724,3.8793,3.8846,3.8902,3.8956,3.8991,3.9021,3.9073,3.9148,3.9195,3.9288,3.936,3.9431,3.9463,3.9458,3.9462,3.9478,3.9471,3.9457,3.9462,3.9287,3.9456,3.9455,3.9454,3.9453,3.9453,3.8512,3.8575,3.8643,3.8685,3.8719,3.8788,3.8832,3.8854,3.89,3.8969,3.9016,3.909,3.915,3.9269,3.9305,3.9374,3.9371,3.9433,3.9381,3.9373,3.9367,3.9362,3.9367,3.9441,3.9442,3.9444,3.9445,0,3.8433,3.8463,3.8565,3.8626,3.8643,3.8707,3.8759,3.8814,3.884,3.892,3.8939,3.8979,3.9053,3.9079,3.917,3.9181,3.9284,3.9283,3.9265,3.9264,3.932,3.9313,3.9503,3.9527,3.9383,3.9384,3.9385,0,3.8327,3.8408,3.8446,3.8504,3.8595,3.8614,3.8703,3.8734,3.8782,3.8844,3.8845,3.8904,3.8928,3.8991,3.9008,3.9098,3.9116,3.9128,3.9131,3.9126,3.9124,3.9147,3.9138,3.914,3.9139,3.9138,3.9137,0,3.8196,3.8314,3.8408,3.8439,3.8512,3.8556,3.8588,3.8641,3.8684,3.8745,3.8773,3.8843,3.888,3.8933,3.8953,3.8917,3.9065,3.9019,3.9077,3.9076,3.9105,3.9102,3.9268,3.9136,3.9135,3.9135,3.9135,0,3.8113,3.8174,3.8308,3.8368,3.8397,3.846,3.8529,3.8589,3.8646,3.866,3.8708,3.8709,3.8792,3.8744,3.8857,3.8803,3.884,3.886,3.8865,3.887,3.8813,3.8898,3.9057,3.9072,3.888,3.8878,3.8876,0,3.7954,3.8097,3.8114,3.8241,3.831,3.8303,3.8374,3.8424,3.8449,3.8511,3.8538,3.8609,3.8579,3.8603,3.8657,3.8687,3.8758,3.8679,3.8764,3.8767,3.8745,3.8893,3.8907,3.902,3.8849,3.8852,3.8854,0,3.7834,3.7921,3.7942,3.7977,3.8047,3.8105,3.8187,3.8261,3.83,3.8358,3.8424,3.8526,3.8506,3.8548,3.8556,3.861,3.8711,3.8581,3.8583,3.8601,3.8839,3.8852,3.8871,3.8705,3.8708,3.871,3.8833,0,3.7694,3.777,3.7831,3.7909,3.7959,3.804,3.8067,3.8115,3.8118,3.8141,3.8242,3.829,3.8364,3.8394,3.8397,3.8514,3.8497,3.8475,3.8426,3.8525,3.8565,3.8582,3.8364,3.8362,3.8361,3.836,0,0,3.7533,3.7641,3.7657,3.7736,3.7778,3.7769,3.7853,3.7893,3.7974,3.8003,3.7977,3.8125,3.8165,3.8284,3.8317,3.8348,3.837,3.8335,3.8479,3.8492,3.8504,3.8547,3.8564,3.8359,3.8358,3.8358,3.8358,0,3.7486,3.7528,3.7612,3.7655,3.7717,3.7738,3.7759,3.7818,3.7837,3.7937,3.7926,3.799,3.8109,3.8151,3.8187,3.8323,3.8309,3.8344,3.8406,3.8467,3.8482,3.8494,3.8539,3.8556,3.8355,3.8355,3.8355,0,3.7369,3.7414,3.7457,3.7554,3.7594,3.7666,3.7622,3.7701,3.7754,3.7738,3.7836,3.7866,3.7925,3.8035,3.8086,3.8063,3.8251,3.8198,3.8205,3.821,3.827,3.8287,3.8303,3.8098,3.8097,3.8096,0,0,3.7325,3.7396,3.7449,3.7546,3.7572,3.7604,3.7645,3.7651,3.7705,3.7726,3.7763,3.7815,3.7884,3.7929,3.7995,3.8113,3.8125,3.8165,3.8177,3.8187,3.8197,3.8259,3.8277,3.8092,3.8092,3.8092,0,0,3.7303,3.7368,3.7361,3.7477,3.7529,3.7586,3.7644,3.7636,3.7698,3.7691,3.7705,3.7719,3.7823,3.7852,3.7798,3.7977,3.7929,3.7942,3.7953,3.7969,3.7981,3.797,3.7758,0,0,0,0,0,3.7268,3.736,3.7353,3.7376,3.7498,3.7591,3.7606,3.7619,3.7584,3.763,3.766,3.7643,3.7826,3.7778,3.7801,3.7859,3.8043,3.8051,3.806,3.8102,3.8118,3.8132,0,0,0,0,0,0,3.7277,3.7305,3.7351,3.7412,3.744,3.7588,3.7531,3.7537,3.758,3.7575,3.7638,3.7645,3.7658,3.7768,3.7788,3.7843,3.7751,3.8046,3.8053,3.806,3.8107,3.8121,3.8132,0,0,0,0,0,3.7284,3.7307,3.7498,3.7411,3.7435,3.7475,3.7527,3.7532,3.7565,3.7611,3.7618,3.7571,3.7659,3.7677,3.778,3.7834,3.7737,3.7744,3.8051,3.8057,3.8062,3.8114,0,0,0,0,0,0,3.729,3.7312,3.7503,3.7511,3.7377,3.7466,3.7481,3.7528,3.7599,3.7606,3.7544,3.754,3.7661,3.7675,3.7688,3.783,3.7726,3.7733,3.7738,3.8055,3.806,3.8064,0,0,0,0,0,0,3.73,3.7318,3.7507,3.7463,3.7466,3.7459,3.7472,3.7561,3.76,3.7528,3.7526,3.7542,3.764,3.7674,3.7684,3.7823,3.7717,3.7724,3.7729,3.7732,3.8059,3.8063,0,0,0,0,0,0,3.7308,3.7324,3.7461,3.7463,3.7465,3.7553,3.7538,3.7661,3.7562,3.7525,3.7554,3.755,3.764,3.7651,3.7681,3.7816,3.7821,3.7717,3.7722,3.7726,3.7728,0,0,0,0,0,0,0,3.7314,3.7203,3.7457,3.7463,3.7465,3.7582,3.7584,3.7586,3.7562,3.7558,3.7555,3.7552,3.7675,3.7683,3.7691,3.781,0,0,3.7716,3.772,0,0,0,0,0,0,0,0,3.7196,3.7201,3.7458,3.7459,3.7461,3.7582,3.7584,3.7586,3.7561,3.7558,3.7555,3.7553,3.7678,3.7684,3.7691,0,0,0,0,0,0,0,0,0,0,0,0,0,0,0,3.7458,3.7459,0,3.7583,3.7584,3.7585,3.7561,3.7558,3.7556,3.7554,3.7679,3.7685,3.769,0,0,0,0,0,0,0,0,0,0,0,0,0,0,0,0,0,0,0,0,0,0,0,0,0,0,0,0,0,0,0,0,0,0,0,0,0,0,0,0,0,0,0,0,0,0,0,0,0,0,0,0,0,0,0,0,0,0,0,0,0,0,0,0,0,0,0,0,0]}],[{"header":{"parameterUnit":"kt","parameterCategory":2,"dx":1,"dy":1,"la1":30.253999710083008,"la2":30.299108505249023,"lo1":-89.0895004272461,"lo2":-89.04439544677734,"nx":28,"ny":28,"refTime":"2022-10-19T21:00:00:Z","depth":0,"parameterNumber":2,"parameterNumberName":"V-component_of_WINDS"},"data":[2.4838,2.4814,2.4793,2.4755,2.473,2.47,2.4682,2.4657,2.4631,2.4591,2.4564,2.4539,2.4504,2.4465,2.4433,2.4422,2.4409,2.4415,2.4401,2.4397,2.4395,2.4393,2.4398,2.4413,2.4413,2.4408,2.4408,2.4408,2.4832,2.4808,2.4783,2.4745,2.4722,2.4704,2.4671,2.4653,2.4626,2.4594,2.4567,2.4529,2.4496,2.4459,2.4423,2.4408,2.4397,2.44,2.44,2.4394,2.4389,2.4395,2.4409,2.4409,2.4409,2.4409,2.4409,2.4409,2.4817,2.4804,2.477,2.4742,2.4717,2.4691,2.4674,2.4645,2.4619,2.4582,2.4562,2.4531,2.4494,2.4441,2.4418,2.4391,2.4384,2.4381,2.4379,2.4379,2.438,2.4386,2.4384,2.4384,2.4384,2.4384,2.4384,0,2.48,2.4784,2.4759,2.4728,2.4706,2.468,2.4652,2.4641,2.46,2.458,2.4549,2.4527,2.4484,2.4451,2.4414,2.439,2.4368,2.4364,2.4361,2.437,2.4382,2.4373,2.4365,2.4365,2.4364,2.4364,2.4364,2.4364,2.4782,2.477,2.4724,2.4709,2.469,2.4666,2.4648,2.4613,2.4594,2.4554,2.4543,2.4511,2.4483,2.4436,2.4401,2.4368,2.4357,2.4359,2.4352,2.4361,2.4355,2.4356,2.4353,2.4361,2.4362,2.4362,2.4362,0,2.4773,2.4741,2.4716,2.4673,2.4661,2.4649,2.4611,2.4596,2.4571,2.4546,2.4538,2.4497,2.4467,2.4433,2.4392,2.4374,2.4349,2.434,2.4361,2.4357,2.4354,2.4354,2.4353,2.435,2.4336,2.4336,2.4337,0,2.4744,2.473,2.4683,2.4671,2.4652,2.4618,2.4601,2.4577,2.4547,2.4528,2.4499,2.4481,2.444,2.4416,2.4391,2.4365,2.4357,2.4342,2.4335,2.4344,2.4346,2.4333,2.4332,2.4323,2.4323,2.4323,2.4323,0,2.4734,2.4693,2.4672,2.4657,2.461,2.46,2.458,2.4547,2.4529,2.4501,2.4488,2.4458,2.444,2.4416,2.4384,2.438,2.4352,2.434,2.4336,2.4337,2.4332,2.4332,2.4341,2.4323,2.4323,2.4323,2.4323,0,2.4706,2.468,2.4655,2.4615,2.4605,2.4592,2.456,2.454,2.4507,2.4491,2.4468,2.4445,2.4422,2.4412,2.4379,2.4383,2.4367,2.435,2.4349,2.4345,2.4335,2.4343,2.4355,2.4354,2.434,2.434,2.434,0,2.4701,2.4669,2.464,2.4617,2.4597,2.4567,2.455,2.4523,2.45,2.4479,2.4453,2.4429,2.4415,2.4403,2.4391,2.4363,2.4357,2.4363,2.4329,2.4328,2.4337,2.4349,2.4359,2.4356,2.4342,2.4341,2.4341,0,2.4693,2.4639,2.4637,2.4619,2.4579,2.4563,2.4545,2.4514,2.4502,2.4475,2.4457,2.4424,2.4411,2.4392,2.4371,2.436,2.436,2.4348,2.4347,2.435,2.4341,2.435,2.4349,2.4347,2.4347,2.4347,2.4343,0,2.4656,2.4637,2.4631,2.4594,2.4577,2.4562,2.4528,2.4514,2.4495,2.4472,2.4447,2.4417,2.4386,2.4378,2.436,2.4347,2.4344,2.4331,2.432,2.4328,2.4325,2.4325,2.4326,2.4325,2.4325,2.4324,0,0,2.4658,2.463,2.4601,2.4584,2.4567,2.4537,2.4523,2.4504,2.4465,2.4454,2.4447,2.4396,2.4373,2.4345,2.4345,2.4334,2.4327,2.4327,2.4325,2.4325,2.4325,2.4323,2.4323,2.4323,2.4323,2.4323,2.4323,0,2.4637,2.4617,2.4605,2.4583,2.4551,2.4528,2.4525,2.4487,2.4472,2.4449,2.4424,2.4405,2.4367,2.4344,2.4327,2.4329,2.4311,2.4322,2.4334,2.4321,2.4322,2.4323,2.4321,2.4321,2.4322,2.4322,2.4322,0,2.4623,2.4596,2.4588,2.4551,2.453,2.4511,2.449,2.4473,2.4458,2.4426,2.4404,2.4383,2.435,2.4331,2.4321,2.4314,2.4297,2.4298,2.43,2.4298,2.4284,2.4285,2.4286,2.4274,2.4274,2.4273,0,0,2.461,2.4593,2.4554,2.4544,2.4533,2.4499,2.4486,2.4467,2.444,2.4429,2.4402,2.4375,2.4352,2.4338,2.4315,2.4299,2.4288,2.4293,2.4296,2.4298,2.4297,2.4283,2.4284,2.4273,2.4273,2.4273,0,0,2.4603,2.4558,2.4545,2.453,2.4505,2.4466,2.4461,2.4443,2.442,2.4418,2.4384,2.4376,2.4357,2.4338,2.434,2.431,2.4299,2.4298,2.4324,2.4326,2.4328,2.4333,2.4315,0,0,0,0,0,2.4566,2.4564,2.4552,2.4545,2.4499,2.4473,2.4466,2.4439,2.4431,2.4427,2.4402,2.4384,2.4331,2.4332,2.4325,2.4323,2.4272,2.4272,2.4272,2.4301,2.4304,2.4306,0,0,0,0,0,0,2.4563,2.4555,2.4552,2.4514,2.4503,2.4472,2.4453,2.4445,2.4431,2.4428,2.4389,2.4383,2.4358,2.4334,2.4328,2.4327,2.4317,2.4272,2.4272,2.4272,2.4302,2.4304,2.4306,0,0,0,0,0,2.4561,2.4554,2.4488,2.4513,2.4504,2.4467,2.4453,2.4446,2.4435,2.4396,2.4389,2.4415,2.4359,2.4352,2.433,2.433,2.4321,2.4318,2.4272,2.4272,2.4272,2.4303,0,0,0,0,0,0,2.4559,2.4547,2.4485,2.4481,2.4513,2.4468,2.446,2.4448,2.4403,2.4396,2.442,2.4418,2.436,2.4354,2.4349,2.4333,2.4324,2.4322,2.432,2.4272,2.4272,2.4273,0,0,0,0,0,0,2.455,2.4544,2.4483,2.4484,2.448,2.4469,2.4462,2.444,2.4403,2.443,2.4427,2.442,2.4367,2.4355,2.4351,2.4318,2.4326,2.4324,2.4323,2.4322,2.4272,2.4272,0,0,0,0,0,0,2.4547,2.4541,2.4485,2.4482,2.4478,2.4433,2.4449,2.4404,2.4405,2.4432,2.4404,2.4404,2.4369,2.4364,2.4353,2.4322,2.4319,2.4326,2.4325,2.4324,2.4323,0,0,0,0,0,0,0,2.4544,2.459,2.4509,2.448,2.4477,2.4445,2.4444,2.4443,2.4405,2.4404,2.4404,2.4404,2.4339,2.4336,2.4334,2.4325,0,0,2.4327,2.4326,0,0,0,0,0,0,0,0,2.4591,2.459,2.4508,2.4508,2.4507,2.4445,2.4444,2.4444,2.4405,2.4404,2.4404,2.4404,2.4338,2.4336,2.4334,0,0,0,0,0,0,0,0,0,0,0,0,0,0,0,2.4508,2.4508,0,2.4445,2.4444,2.4444,2.4405,2.4405,2.4404,2.4404,2.4337,2.4336,2.4334,0,0,0,0,0,0,0,0,0,0,0,0,0,0,0,0,0,0,0,0,0,0,0,0,0,0,0,0,0,0,0,0,0,0,0,0,0,0,0,0,0,0,0,0,0,0,0,0,0,0,0,0,0,0,0,0,0,0,0,0,0,0,0,0,0,0,0,0,0]}]]]